Cosmos 1023 Rocket - Orbit

View from above orbital plane
View from above orbital plane
View from above satellite
View from above satellite

Ground track
Ground track

The orbit data is extracted from the following two-line orbital elements,

1 10962U 78063B   13139.21303314  .00000202  00000-0  71637-4 0  4599
2 10962 074.0821 088.2860 0025266 012.1015 087.7184 14.40431901831290
Epoch (UTC): 19 May 2013 05:06:46
Eccentricity: 0.0025266
inclination: 74.0821°
perigee height: 739 km
apogee height: 775 km
right ascension of ascending node: 88.2860°
argument of perigee: 12.1015°
revolutions per day: 14.40431901
mean anomaly at epoch: 87.7184°
orbit number at epoch: 83129

The dashed part of the orbit path shows where the satellite is in the earth's shadow,  

Developed and maintained by Chris Peat, Heavens-Above GmbH. Please read the updated FAQ before sending e-mail. Imprint. DLR